Skip Page Navigation
NASA JPL Caltech
NASA Logo - Jet Propulsion Laboratory + View the NASA Portal
+ Center for Near-Earth Object Studies
JPL Home Earth Solar System Stars & Galaxies Technology
JPL Solar System Dynamics
BODIES ORBITS EPHEMERIDES TOOLS PHYSICAL DATA DISCOVERY FAQ SITE MAP
IMPORTANT: The SSD Announcement email list is now available. Major changes are coming in the near future, including possible hostname and/or URL changes. To be notified of such changes, subscribe to this email list.

Please visit this page for more details.


JPL Small-Body Database Browser
Search: [ help ]  
409 Aspasia (A895 XC)
Classification: Main-belt Asteroid          SPK-ID: 2000409
Ephemeris | Orbit Diagram | Orbital Elements | Mission Design | Physical Parameters | Discovery Circumstances ]

[ hide orbit diagram ]

For accurate long-term ephemerides, please instead use our Horizons system.This orbit viewer was implemented using two-body methods, and hence should not be used for determining accurate long-term trajectories (over several years or decades) or planetary encounter circumstances.


[ revert to old Java-based viewer ]

Orbital Elements at Epoch 2458600.5 (2019-Apr-27.0) TDB
Reference: JPL 100 (heliocentric ecliptic J2000)
 Element Value Uncertainty (1-sigma)   Units 
e .07259087485268199 2.9993e-08  
a 2.575545295880689 5.3863e-09 au
q 2.38858420963 7.7574e-08 au
i 11.26815176475483 3.3788e-06 deg
node 242.1528110605687 1.6511e-05 deg
peri 353.2236548574926 2.847e-05 deg
M 139.3064167585324 2.3543e-05 deg
tp 2458016.287512414271
(2017-Sep-19.78751241)
9.8423e-05 TDB
period 1509.740185876835
4.13
4.736e-06
1.297e-08
d
yr
n .2384516245693741 7.4802e-10 deg/d
Q 2.762506382131378 5.7773e-09 au
  Orbit Determination Parameters
   # obs. used (total)      2920  
   data-arc span      45283 days (123.98 yr)  
   first obs. used      1895-12-10  
   last obs. used      2019-12-03  
   planetary ephem.      DE431  
   SB-pert. ephem.      SB431-N16  
   condition code      0  
   norm. resid. RMS      .46596  
   source      ORB  
   producer      Otto Matic  
   solution date      2019-Dec-13 20:42:35  

Additional Information
 Earth MOID = 1.37686 au 
 Jupiter MOID = 2.24906 au 
 T_jup = 3.397 
[ show covariance matrix ]

Ephemeris | Orbit Diagram | Orbital Elements | Mission Design | Physical Parameters | Discovery Circumstances ]

Physical Parameter Table
Parameter Symbol Value Units Sigma Reference Notes
absolute magnitude H 7.62   n/a IRAS-A-FPA-3-RDR-IMPS-V6.0 IRAS observations used: 12
magnitude slope G 0.29   n/a PDS3 (MPC 17258) Fit
diameter diameter 171.012 km 1.155 urn:nasa:pds:neowise_diameters_albedos::2.0[mainbelt] (http://adsabs.harvard.edu/abs/2014ApJ...791..121M)  
rotation period rot_per 9.022 h n/a LCDB (Rev. 2019-January); Warner et al., 2009 Published Reference List:
[Di Martino, M.; Cacciatori, S. (1984) Astron. Astrophys. 130, 206-207.]
[Zappala, V.; Di Martino, M.; Hanslmeier, A.; Schober, H.J. (1985) Astron. Astrophys. 147, 1, 35-38.]
[Hainaut-Rouelle, M.-C.; Hainaut, O.R.; Detal, A. (1995) Astron. Astrophys. Suppl. Ser. 112, 125-142.]
[Piironen, J.; Lagerkvist, C.-I.; Erikson, A.; Oja, T.; et al. (1998) Astron. Astrophys. Suppl. Ser. 128, 525-540.]
[Behrend, R. (2004) Observatoire de Geneve web site, http://obswww.unige.ch/~behrend/page_cou.html]
[Lopez-Gonzalez, M.J.; Rodriguez, E. (2005) Planet. Space Sci. 53, 1147-1165.]
[Behrend, R. (2008) Observatoire de Geneve web site, http://obswww.unige.ch/~behrend/page_cou.html]
[Warner, B.D.; Durech, J.; Faurerbach, M.; Marks, S. (2008) Minor Planet Bull. 35, 167-171.]
[Behrend, R. (2010) Observatoire de Geneve web site, http://obswww.unige.ch/~behrend/page_cou.html]
[Durech, J.; Kaasalainen, M.; Herald, D.; Dunham, D.; et al. (2011) Icarus 214, 652-670.]
[Hanus, J.; Marchis, F.; Durech, J. (2013) Icarus 226, 1045-1057.]
[Alton, K.B. (2015) Minor Planet Bull. 42, 146-148.]
[Hanus, J.; Durech, J.; Oszkiewicz, D.A.; Behrend, R.; et al. (2016) Astron. Astrophys. 586, A108.]
[Hanus, J.; Viikinkoski, M.; Marchis, F.; Durech, J.; et al (2017) Astron. Astrophys. 601, A114.]
[Behrend, R. (2018) Observatoire de Geneve web site, http://obswww.unige.ch/~behrend/page_cou.html]
geometric albedo albedo 0.054   0.005 urn:nasa:pds:neowise_diameters_albedos::2.0[mainbelt] (http://adsabs.harvard.edu/abs/2014ApJ...791..121M)  
B-V BV 0.719   0.018 EAR-A-5-DDR-UBV-MEAN-VALUES-V1.2 #obs=7; phase (min.=4.66, mean=12.04, max.=19.38) deg.
U-B UB 0.323   0.015 EAR-A-5-DDR-UBV-MEAN-VALUES-V1.2 #obs=5; phase (min.=4.66, mean=11.79, max.=19.38) deg.
Tholen spectral type spec_T CX   n/a EAR-A-5-DDR-TAXONOMY-V4.0 used 2 color indices
SMASSII spectral type spec_B Xc   n/a EAR-A-5-DDR-TAXONOMY-V4.0 based on a high-resolution spectrum by Xu et al. (1995) or Bus and Binzel (2002)

409 Aspasia (A895 XC)          Discovered 1895-Dec-09 by Charlois, A. at Nice
Reference: DISCOVERY.DBLast Updated: 2003-08-29

Alternate Designations
 A895 XC = 1948 RT1 = 1949 CB = A904 AB 
Ephemeris | Orbit Diagram | Orbital Elements | Mission Design | Physical Parameters | Discovery Circumstances ]
ABOUT SSD CREDITS/AWARDS PRIVACY/COPYRIGHT GLOSSARY LINKS
FirstGov 2019-Dec-15 21:41 UT
(server date/time)  
NASA Home Page
Site Manager:   Ryan S. Park
Webmaster  Alan B. Chamberlin